sat.trackr.live / text

‹ back to catalog

STARLINK-11435 [DTC]

NORAD 62891 · 2025-024N

PAYLOAD ACTIVE UNKNOWN

§ Identity

Operator
Country
US
Launch date
2025-02-04
Launch site
AFETR
Launch vehicle
Mass (kg)
RCS (m²)

Purposes: comms

External: N2YO · Heavens-Above · Gunter

§ Orbital elements

Epoch: 2026-09-21T12:47:54.168576Z

Period
91.65 min
Inclination
42.9983°
Eccentricity
0.0002063
Mean motion
15.71138726 rev/d
Perigee alt
354.3 km
Apogee alt
357.0 km
Semi-major
6,733.8 km
B*
1.3995e-3
RAAN
81.3374°
Arg perigee
237.0960°
Mean anomaly
122.9710°
Rev number
9,426

§ Raw data

STARLINK-11435 [DTC]1 62891U 25024N   26264.53326584  .00185511  00000+0  13995-2 0  99942 62891  42.9983  81.3374 0002063 237.0960 122.9710 15.71138726 94261

JSON: /api/v1/satellites/62891 · /tle

For live sub-satellite position, see the globe view (requires WebGL).

§ Visibility from observer

Set your observer location to see the next 7 days of passes ≥ 10°. The values pass through the URL so the page stays shareable.

No JS? Fill the form by hand. The geolocation button needs JavaScript.